Total_Precipitation_Accumulation
2.65 2.84 2.82 2.64 2.65 2.78 3.00 3.21 3.24 3.04 2.95 2.84 2.51 2.38 2.35 2.33 2.44 2.31 2.41 2.32 1.88 1.64 1.57 1.55 1.52 1.53 1.60 1.76 2.00 2.32 2.54 2.65 2.78 3.01 3.34 3.71 4.08 4.43
2.91 2.97 2.84 2.58 2.71 2.75 2.89 3.18 3.45 3.50 3.23 2.82 2.58 2.45 2.45 2.17 2.19 2.00 2.05 1.97 1.66 1.50 1.40 1.36 1.30 1.28 1.29 1.36 1.49 1.77 1.97 2.15 2.33 2.43 2.58 2.80 3.08 3.35
2.86 2.76 2.65 2.69 2.85 2.78 2.92 3.08 3.31 3.55 3.29 2.93 2.77 2.72 2.70 2.51 2.32 2.03 1.78 1.67 1.56 1.60 1.44 1.29 1.24 1.22 1.26 1.33 1.40 1.51 1.68 1.88 2.06 2.20 2.36 2.54 2.66 2.77
2.78 2.73 2.61 2.74 2.84 2.81 2.89 2.89 2.98 3.27 3.17 2.96 2.89 2.93 2.81 2.58 2.44 2.25 1.89 1.70 1.71 1.80 1.62 1.43 1.32 1.30 1.26 1.27 1.36 1.45 1.55 1.68 1.84 1.93 1.99 2.04 2.20 2.43
2.73 2.65 2.54 2.63 2.58 2.64 2.66 2.67 2.67 2.77 2.96 2.88 2.78 2.86 2.76 2.56 2.47 2.29 2.16 2.25 2.04 1.88 1.74 1.57 1.45 1.39 1.36 1.29 1.31 1.40 1.50 1.54 1.57 1.71 1.84 1.94 1.99 2.05
2.42 2.35 2.37 2.50 2.59 2.56 2.46 2.45 2.53 2.67 2.76 2.79 2.77 2.84 2.85 2.83 2.70 2.55 2.53 2.46 2.29 1.86 1.79 1.60 1.47 1.35 1.28 1.19 1.21 1.37 1.51 1.57 1.59 1.59 1.66 1.76 1.86 1.96
2.22 2.05 2.08 2.39 2.53 2.48 2.27 2.38 2.45 2.52 2.60 2.72 2.77 2.86 2.93 3.12 2.91 2.61 2.49 2.54 2.39 2.16 2.01 1.79 1.64 1.51 1.45 1.39 1.33 1.33 1.36 1.46 1.56 1.67 1.81 1.91 1.96 2.01
1.98 1.92 1.91 1.98 2.01 2.04 2.01 2.01 2.08 2.17 2.39 2.66 2.74 2.74 2.72 2.81 2.89 2.77 2.65 2.60 2.56 2.46 2.48 2.37 2.04 1.97 1.85 1.69 1.56 1.31 1.17 1.22 1.37 1.48 1.74 2.00 2.23 2.31
1.94 2.01 1.74 1.57 1.70 1.72 1.83 1.80 1.72 1.80 1.94 2.22 2.41 2.41 2.50 2.53 2.78 2.81 2.85 2.88 2.84 2.79 2.78 2.81 2.47 2.16 1.91 1.81 1.72 1.37 1.21 1.16 1.21 1.32 1.44 1.66 1.96 2.27
1.83 1.85 1.80 1.68 1.63 1.75 1.81 1.74 1.58 1.53 1.51 1.51 1.74 2.03 2.26 2.49 2.55 2.61 2.73 2.80 2.81 2.66 2.59 2.67 2.50 2.35 2.02 1.75 1.62 1.42 1.23 1.11 1.08 1.14 1.17 1.24 1.40 1.64
1.80 1.73 1.68 1.62 1.65 1.53 1.48 1.50 1.50 1.49 1.33 1.32 1.40 1.62 1.81 1.88 2.09 2.35 2.58 2.58 2.52 2.32 2.14 2.23 2.29 2.31 2.29 2.03 1.64 1.49 1.29 1.11 1.06 1.07 1.06 1.06 1.13 1.23
1.76 1.72 1.59 1.44 1.43 1.30 1.28 1.43 1.42 1.43 1.45 1.36 1.26 1.29 1.38 1.53 1.62 1.70 2.02 2.25 2.17 2.12 1.87 1.78 1.78 1.90 2.08 1.89 1.60 1.49 1.44 1.30 1.11 1.07 1.06 1.03 1.07 1.02
1.76 1.70 1.63 1.50 1.30 1.25 1.19 1.26 1.33 1.31 1.38 1.41 1.36 1.32 1.40 1.52 1.47 1.45 1.62 1.85 1.94 1.79 1.62 1.70 1.61 1.55 1.57 1.53 1.42 1.27 1.30 1.41 1.36 1.22 1.15 1.13 1.15 1.16
1.89 1.85 1.76 1.54 1.30 1.22 1.14 1.13 1.11 1.03 1.06 1.24 1.29 1.25 1.28 1.38 1.45 1.44 1.51 1.58 1.66 1.59 1.58 1.67 1.71 1.66 1.55 1.40 1.28 1.15 1.11 1.20 1.36 1.55 1.64 1.64 1.50 1.45
1.88 1.95 1.69 1.44 1.28 1.13 1.12 1.12 1.00 0.91 1.02 1.11 1.12 1.13 1.13 1.25 1.47 1.62 1.68 1.69 1.63 1.45 1.32 1.36 1.47 1.63 1.64 1.42 1.20 1.11 1.10 1.15 1.28 1.49 1.64 1.75 1.81 1.81
1.68 1.77 1.63 1.45 1.30 1.17 1.12 1.08 1.01 1.05 1.14 1.15 1.17 1.22 1.25 1.33 1.43 1.51 1.60 1.65 1.62 1.40 1.28 1.25 1.32 1.52 1.58 1.41 1.27 1.17 1.16 1.22 1.26 1.47 1.72 1.84 1.87 1.92
1.69 1.70 1.68 1.54 1.41 1.32 1.28 1.32 1.35 1.33 1.27 1.27 1.31 1.34 1.33 1.32 1.36 1.42 1.49 1.54 1.48 1.29 1.18 1.25 1.34 1.51 1.55 1.53 1.42 1.21 1.17 1.16 1.18 1.38 1.66 1.78 1.83 1.88
1.58 1.55 1.65 1.64 1.56 1.48 1.43 1.44 1.44 1.40 1.34 1.35 1.35 1.34 1.31 1.28 1.31 1.34 1.36 1.38 1.35 1.25 1.15 1.13 1.31 1.54 1.62 1.44 1.19 1.12 1.11 1.07 1.13 1.33 1.48 1.54 1.46 1.47
1.38 1.42 1.53 1.58 1.53 1.50 1.45 1.42 1.38 1.41 1.43 1.37 1.32 1.32 1.31 1.28 1.31 1.35 1.35 1.39 1.36 1.32 1.28 1.29 1.35 1.44 1.47 1.28 1.06 0.91 1.03 1.10 1.19 1.29 1.39 1.37 1.26 1.25
1.22 1.28 1.35 1.42 1.43 1.45 1.45 1.45 1.40 1.40 1.41 1.39 1.35 1.35 1.36 1.32 1.32 1.33 1.29 1.31 1.39 1.42 1.44 1.38 1.34 1.31 1.30 1.31 1.26 1.11 0.99 1.17 1.31 1.31 1.28 1.32 1.28 1.23
1.12 1.15 1.18 1.21 1.26 1.32 1.33 1.38 1.37 1.34 1.34 1.38 1.34 1.33 1.37 1.39 1.39 1.37 1.37 1.39 1.41 1.45 1.42 1.27 1.24 1.41 1.56 1.66 1.52 1.31 1.27 1.27 1.36 1.40 1.41 1.46 1.44 1.39
1.10 1.13 1.08 1.07 1.12 1.19 1.26 1.32 1.33 1.35 1.39 1.38 1.37 1.37 1.37 1.38 1.37 1.39 1.42 1.46 1.47 1.47 1.45 1.49 1.60 1.69 1.74 1.69 1.54 1.50 1.60 1.58 1.53 1.49 1.41 1.41 1.37 1.28
1.05 1.02 0.99 1.00 1.04 1.11 1.17 1.21 1.28 1.37 1.37 1.37 1.41 1.40 1.35 1.35 1.35 1.39 1.39 1.42 1.48 1.57 1.67 1.70 1.68 1.64 1.63 1.67 1.66 1.60 1.57 1.65 1.70 1.63 1.48 1.37 1.24 1.10